CZ-4 DEB

Satellite information

Favourite Embed

Satellite Type and Status

DEBRISIN ORBIT

Key statistics

Satellite CZ-4 DEB at a glance.

Uptime

9558

Days in orbit

Revolutions

≈ 14.4

Per day

Orbit

SSO

Sun Synchronous Orbit

Inclination

98.7

Latest

Satellite identification and parameters

Extended collection of information and parameters for CZ-4 DEB.

Object identification

Identified? True

Debris? True

Object name: CZ-4 DEB

International designator: 1999-057MQ

Object number (NORAD): 27676

Object ID (CCSDS): 27676

Country: PEOPLES REPUBLIC OF CHINA (PRC)

Current information (Y/N): Y

RCS size: SMALL

Orbital parameters

Period: 99.938 minutes

Inclination: 98.6793 deg

SMA: 7133.701 km

Apoapsis: 827.393 km

Periapsis: 683.739 km

RAAN: 37.4498 deg

Eccentricy: 0.01006875

Argument of periapsis: 99.6662 deg

Mean anomaly: 261.5917 deg

Mean motion: 14.40888601 rev/day

Mean motion (dot): 0.00001412 rev/day2

B* drag term: 0.00042848844 1/REarth

Two-line elements (TLE)

Creation date: Dec. 9, 2025, 1:02 p.m.

Reference frame: TEME

Reference center: EARTH

Epoch: Dec. 9, 2025, 2:37 a.m. UTC

TLE line 0: 0 CZ-4 DEB

TLE line 1: 1 27676U 99057MQ 25343.10940704 .00001412 00000-0 42849-3 0 9998

TLE line 2: 2 27676 98.6793 37.4498 0100688 99.6662 261.5917 14.40888601199301

Live tracking on map

Real-time ground track for satellite CZ-4 DEB.

In-orbit conjunctions

A list of the most updated potential collisions computed for object CZ-4 DEB.

Target Orbit TCA Probability of collision Miss distance Type
COSMOS 2251 DEB LEO 2025-02-03 14:43:36 0.0001312875 135.0 (m) DEBRIS
MACSAT 1 (M 1) LEO 2025-01-19 16:24:19 0.0004592165 243.0 (m) PAYLOAD

Associated space launch

The CBERS (China Brazil Earth Resources Satellite) or ZY 1 (Zi Yuan) satellites are designed for global coverage and include cameras to make optical observations and a data collecting system to gather data on the environment. They are unique systems due to the use of on-board sensors which combine features that are especially designed to resolve the broad range of space and time scales involved in the monitoring and preservation of the ecosystem. They are operated jointly by the China Centre for Resources Satellite Data and Application (CRESDA) and the Brazilian INPE (Instituto Nacional de Pesquisas Espaciais, National Institute of Space Research).

CZ-4 DEB was lifted into orbit during the mission ‘Long March 4B | Zi Yuan 1-1’, on board a Long March 4B space rocket.

The launch took place on Oct. 14, 1999, 3:15 a.m. from Launch Complex 7.

For more information about the launch, click the button.

Launch to space Long March 4B | Zi Yuan 1-1
Long March 4B | Zi Yuan 1-1

Agency: N/A

Status: Launch Successful

Launch date: Oct. 14, 1999, 3:15 a.m. UTC

Rocket: Long March 4B

Launch pad: Launch Complex 7

Location: Taiyuan Satellite Launch Center, People's Republic of China

...

Latest news about this satellite

There are no fresh news available about this satellite. Check back as we update our databases every day.


Newsletter sign-up

Weekly statistics, charts and insights to help you stay on top of the space industry.